Weather in Kurakino

Russia / Republic of Mordovia     54°57′35″N   46°08′05″E
temp.,
°C
wind,
m/s
gust,
m/s
humid.,
%
clouds,
%
prec.,
mm/h
press.,
hPa
HPBL,
m
18 september, sat
sat1800:00+3wnw356962 0.0 101980
03:00+2nw38855 0.0 1019192
06:00+1nw389624 0.0 1020202
09:00+5nnw4677100 0.0 1021560
12:00+8nnw456097 0.1 10221226
15:00+8nnw355174 0.1 10221224
18:00+6n33535 0.0 102328
21:00+4nne22615 0.0 102418
19 september, sun
sun1900:00+2n0073100 0.0 102510
03:00+1nne238192 0.0 102548
06:00+1nne2284100 0.0 102635
09:00+5ne2357100 0.0 1026521
12:00+8ne2243100 0.0 1026998
15:00+10ne2238100 0.0 10251079
18:00+7ene1248100 0.0 102510
21:00+5e2258100 0.0 102532
20 september, mon
mon2000:00+5e2557100 0.0 1025145
03:00+5e3860100 0.0 1025232
06:00+5e41063100 0.0 1024376
09:00+7ese6961100 0.1 1024831
12:00+9se6853100 0.0 10241098
15:00+8ese6958100 0.0 10241042
18:00+7ese61062100 0.1 10231013
21:00+7ese61269100 0.1 1023854
21 september, tue
tue2100:00+8ese61268100 0.1 1022741
03:00+8ese71370100 0.4 1020800
06:00+7ese71481100 0.4 1019671
09:00+7ese71489100 0.6 1019652
12:00+7ese81385100 0.0 1018619
15:00+9ese71281100 0.0 1016729
18:00+9ese71282100 0.1 1016506
21:00+7e51288100 0.3 1014365
22 september, wed
wed2200:00+8e61376100 0.0 1013436
03:00+7e61392100 4.9 1010350
06:00+7ese41094100 2.8 1010402
09:00+8ese3594100 3.6 1010246
12:00+8ese2297100 6.1 1010196
15:00+9nw1297100 9.4 1010137
18:00+9n009673 0.0 101210
21:00+8sse229534 0.0 101319